| time (UTC) | temp F | wind direction | speed MPH | gust MPH | rain 1hr in | rain 24hr in | rain mn in | humidity % | barometer mb |
| 20260502214003 | 48 | 75 | 1.0 | 3.0 | 0.00 | 0.00 | 0.00 | 39 | 1025.7 |
| 20260502213503 | 48 | 75 | 2.0 | 3.0 | 0.00 | 0.00 | 0.00 | 38 | 1025.6 |
| 20260502213003 | 48 | 75 | 1.0 | 3.0 | 0.00 | 0.00 | 0.00 | 40 | 1025.5 |
| 20260502212717 | 48 | 75 | 1.0 | 3.0 | 0.00 | 0.00 | 0.00 | 40 | 1025.7 |
| 20260502212004 | 47 | 74 | 2.0 | 4.0 | 0.00 | 0.00 | 0.00 | 43 | 1025.6 |
| 20260502211503 | 47 | 75 | 3.0 | 5.0 | 0.00 | 0.00 | 0.00 | 45 | 1025.6 |
| 20260502211003 | 47 | 71 | 4.0 | 5.0 | 0.00 | 0.00 | 0.00 | 46 | 1025.6 |
| 20260502210713 | 47 | 69 | 4.0 | 5.0 | 0.00 | 0.00 | 0.00 | 48 | 1025.7 |
| 20260502210216 | 47 | 68 | 4.0 | 5.0 | 0.00 | 0.00 | 0.00 | 51 | 1025.8 |
| 20260502205503 | 47 | 76 | 3.0 | 5.0 | 0.00 | 0.00 | 0.00 | 49 | 1025.8 |
| 20260502205003 | 47 | 85 | 3.0 | 4.0 | 0.00 | 0.00 | 0.00 | 51 | 1025.8 |
| 20260502204503 | 47 | 86 | 2.0 | 4.0 | 0.00 | 0.00 | 0.00 | 51 | 1025.8 |
| 20260502204213 | 47 | 86 | 2.0 | 4.0 | 0.00 | 0.00 | 0.00 | 51 | 1026.0 |
| 20260502203503 | 47 | 84 | 3.0 | 7.0 | 0.00 | 0.00 | 0.00 | 53 | 1025.9 |
| 20260502203003 | 46 | 81 | 3.0 | 7.0 | 0.00 | 0.00 | 0.00 | 57 | 1025.9 |
| 20260502202503 | 47 | 75 | 2.0 | 4.0 | 0.00 | 0.00 | 0.00 | 57 | 1026.0 |
| 20260502202003 | 47 | 75 | 3.0 | 5.0 | 0.00 | 0.00 | 0.00 | 58 | 1026.0 |
| 20260502201503 | 47 | 78 | 3.0 | 5.0 | 0.00 | 0.00 | 0.00 | 59 | 1026.0 |
| 20260502201003 | 47 | 77 | 2.0 | 4.0 | 0.00 | 0.00 | 0.00 | 60 | 1026.2 |
| 20260502200503 | 47 | 77 | 2.0 | 5.0 | 0.00 | 0.00 | 0.00 | 61 | 1026.1 |
| 20260502200003 | 47 | 78 | 3.0 | 5.0 | 0.00 | 0.00 | 0.00 | 61 | 1026.1 |
| 20260502195715 | 47 | 80 | 3.0 | 5.0 | 0.00 | 0.00 | 0.00 | 61 | 1026.1 |
| 20260502195003 | 47 | 83 | 2.0 | 4.0 | 0.00 | 0.00 | 0.00 | 64 | 1026.2 |
| 20260502194716 | 47 | 83 | 2.0 | 3.0 | 0.00 | 0.00 | 0.00 | 63 | 1026.1 |
| 20260502194003 | 47 | 78 | 2.0 | 3.0 | 0.00 | 0.00 | 0.00 | 63 | 1026.1 |
| 20260502193503 | 47 | 73 | 2.0 | 3.0 | 0.00 | 0.00 | 0.00 | 64 | 1026.0 |
| 20260502193003 | 47 | 71 | 1.0 | 3.0 | 0.00 | 0.00 | 0.00 | 65 | 1026.0 |
| 20260502192713 | 47 | 71 | 2.0 | 3.0 | 0.00 | 0.00 | 0.00 | 65 | 1025.9 |
| 20260502192003 | 47 | 73 | 3.0 | 4.0 | 0.00 | 0.00 | 0.00 | 67 | 1026.0 |
| 20260502191503 | 47 | 80 | 3.0 | 4.0 | 0.00 | 0.00 | 0.00 | 70 | 1025.9 |
| 20260502191003 | 47 | 80 | 3.0 | 4.0 | 0.00 | 0.00 | 0.00 | 70 | 1026.0 |
| 20260502190503 | 47 | 71 | 2.0 | 4.0 | 0.00 | 0.00 | 0.00 | 70 | 1025.9 |
| 20260502190003 | 47 | 82 | 3.0 | 4.0 | 0.00 | 0.00 | 0.00 | 70 | 1025.9 |
| 20260502185503 | 47 | 93 | 3.0 | 4.0 | 0.00 | 0.00 | 0.00 | 70 | 1025.9 |
| 20260502185003 | 47 | 98 | 2.0 | 4.0 | 0.00 | 0.00 | 0.00 | 69 | 1025.8 |
| 20260502184503 | 47 | 98 | 1.0 | 2.0 | 0.00 | 0.00 | 0.00 | 69 | 1025.8 |
| 20260502184003 | 47 | 98 | 1.0 | 2.0 | 0.00 | 0.00 | 0.00 | 69 | 1025.8 |
| 20260502183503 | 47 | 98 | 1.0 | 2.0 | 0.00 | 0.00 | 0.00 | 69 | 1025.8 |
| 20260502183216 | 47 | 98 | 1.0 | 3.0 | 0.00 | 0.00 | 0.00 | 69 | 1025.7 |
| 20260502182503 | 47 | 98 | 2.0 | 3.0 | 0.00 | 0.00 | 0.00 | 69 | 1025.7 |
| 20260502182003 | 48 | 98 | 2.0 | 3.0 | 0.00 | 0.00 | 0.00 | 69 | 1025.8 |
| 20260502181503 | 48 | 98 | 1.0 | 3.0 | 0.00 | 0.00 | 0.00 | 69 | 1025.8 |
| 20260502181003 | 48 | 0 | 0.0 | 0.0 | 0.00 | 0.00 | 0.00 | 69 | 1025.7 |
| 20260502180503 | 48 | 0 | 0.0 | 0.0 | 0.00 | 0.00 | 0.00 | 68 | 1025.7 |
| 20260502180213 | 48 | 0 | 0.0 | 0.0 | 0.00 | 0.00 | 0.00 | 68 | 1025.7 |
| 20260502170503 | 48 | 89 | 2.0 | 4.0 | 0.00 | 0.00 | 0.00 | 67 | 1025.7 |
| 20260502164003 | 48 | 109 | 2.0 | 4.0 | 0.00 | 0.00 | 0.00 | 66 | 1025.8 |
| 20260502163503 | 49 | 111 | 2.0 | 6.0 | 0.00 | 0.00 | 0.00 | 66 | 1025.8 |
| 20260502163003 | 49 | 114 | 3.0 | 6.0 | 0.00 | 0.00 | 0.00 | 66 | 1025.9 |
| 20260502162503 | 49 | 116 | 2.0 | 5.0 | 0.00 | 0.00 | 0.00 | 66 | 1025.9 |
| 20260502162003 | 49 | 116 | 3.0 | 6.0 | 0.00 | 0.00 | 0.00 | 66 | 1025.9 |
| 20260502161503 | 49 | 121 | 3.0 | 6.0 | 0.00 | 0.00 | 0.00 | 65 | 1026.0 |
| 20260502161003 | 50 | 120 | 3.0 | 5.0 | 0.00 | 0.00 | 0.00 | 65 | 1026.0 |
| 20260502160503 | 50 | 119 | 3.0 | 5.0 | 0.00 | 0.00 | 0.00 | 65 | 1026.0 |
| 20260502152003 | 51 | 100 | 4.0 | 8.0 | 0.00 | 0.00 | 0.00 | 64 | 1026.4 |
| 20260502151503 | 50 | 118 | 4.0 | 8.0 | 0.00 | 0.00 | 0.00 | 64 | 1026.4 |
| 20260502151003 | 51 | 120 | 4.0 | 8.0 | 0.00 | 0.00 | 0.00 | 63 | 1026.4 |
| 20260502150717 | 51 | 114 | 4.0 | 8.0 | 0.00 | 0.00 | 0.00 | 64 | 1026.4 |
| 20260502115503 | 50 | 101 | 5.0 | 11.0 | 0.00 | 0.00 | 0.00 | 62 | 1027.6 |
| 20260502115003 | 50 | 99 | 6.0 | 9.0 | 0.00 | 0.00 | 0.00 | 66 | 1027.6 |
| 20260502114003 | 50 | 118 | 4.0 | 12.0 | 0.00 | 0.00 | 0.00 | 66 | 1027.6 |
| 20260502113503 | 50 | 109 | 5.0 | 12.0 | 0.00 | 0.00 | 0.00 | 64 | 1027.8 |
| 20260502113004 | 50 | 116 | 5.0 | 9.0 | 0.00 | 0.00 | 0.00 | 62 | 1027.8 |
| 20260502112503 | 50 | 116 | 5.0 | 9.0 | 0.00 | 0.00 | 0.00 | 63 | 1027.9 |
| 20260502112004 | 49 | 114 | 5.0 | 11.0 | 0.00 | 0.00 | 0.00 | 64 | 1027.8 |
| 20260502111503 | 49 | 124 | 5.0 | 11.0 | 0.00 | 0.00 | 0.00 | 65 | 1028.0 |
| 20260502111003 | 49 | 112 | 6.0 | 11.0 | 0.00 | 0.00 | 0.00 | 61 | 1028.0 |
| 20260502110503 | 49 | 101 | 5.0 | 11.0 | 0.00 | 0.00 | 0.00 | 65 | 1028.0 |
| 20260502110003 | 49 | 117 | 4.0 | 11.0 | 0.00 | 0.00 | 0.00 | 63 | 1027.9 |
| 20260502105503 | 49 | 105 | 5.0 | 11.0 | 0.00 | 0.00 | 0.00 | 66 | 1028.1 |
| 20260502105003 | 49 | 105 | 6.0 | 11.0 | 0.00 | 0.00 | 0.00 | 65 | 1028.0 |
| 20260502104503 | 49 | 108 | 5.0 | 10.0 | 0.00 | 0.00 | 0.00 | 66 | 1028.1 |
| 20260502104003 | 48 | 105 | 5.0 | 9.0 | 0.00 | 0.00 | 0.00 | 65 | 1028.1 |
| 20260502103503 | 49 | 111 | 5.0 | 9.0 | 0.00 | 0.00 | 0.00 | 64 | 1028.3 |
| 20260502103214 | 49 | 109 | 5.0 | 10.0 | 0.00 | 0.00 | 0.00 | 66 | 1028.1 |
| 20260502102503 | 48 | 114 | 5.0 | 10.0 | 0.00 | 0.00 | 0.00 | 65 | 1028.2 |
| 20260502102215 | 49 | 114 | 5.0 | 10.0 | 0.00 | 0.00 | 0.00 | 66 | 1028.3 |
| 20260502101503 | 48 | 118 | 5.0 | 9.0 | 0.00 | 0.00 | 0.00 | 67 | 1028.4 |
| 20260502101003 | 48 | 115 | 5.0 | 10.0 | 0.00 | 0.00 | 0.00 | 67 | 1028.4 |
| 20260502100503 | 47 | 104 | 6.0 | 11.0 | 0.00 | 0.00 | 0.00 | 66 | 1028.6 |
| 20260502091503 | 46 | 102 | 5.0 | 10.0 | 0.00 | 0.00 | 0.00 | 70 | 1028.7 |
| 20260502091003 | 46 | 104 | 6.0 | 10.0 | 0.00 | 0.00 | 0.00 | 71 | 1028.7 |
| 20260502090503 | 46 | 106 | 6.0 | 10.0 | 0.00 | 0.00 | 0.00 | 71 | 1028.6 |
| 20260502071503 | 43 | 108 | 4.0 | 8.0 | 0.00 | 0.00 | 0.00 | 71 | 1028.6 |
| 20260502071003 | 43 | 112 | 4.0 | 8.0 | 0.00 | 0.00 | 0.00 | 71 | 1028.6 |
| 20260502070503 | 43 | 121 | 3.0 | 7.0 | 0.00 | 0.00 | 0.00 | 71 | 1028.6 |
| 20260502070003 | 43 | 121 | 3.0 | 6.0 | 0.00 | 0.00 | 0.00 | 71 | 1028.5 |
| 20260502065503 | 43 | 109 | 3.0 | 7.0 | 0.00 | 0.00 | 0.00 | 72 | 1028.6 |
| 20260502065003 | 43 | 107 | 3.0 | 7.0 | 0.00 | 0.00 | 0.00 | 71 | 1028.4 |
| 20260502064503 | 43 | 117 | 1.0 | 4.0 | 0.00 | 0.00 | 0.00 | 73 | 1028.5 |
| 20260502064215 | 42 | 121 | 1.0 | 4.0 | 0.00 | 0.00 | 0.00 | 73 | 1028.5 |
| 20260502063503 | 42 | 107 | 1.0 | 3.0 | 0.00 | 0.00 | 0.00 | 72 | 1028.5 |
| 20260502063003 | 43 | 104 | 1.0 | 3.0 | 0.00 | 0.00 | 0.00 | 72 | 1028.6 |
| 20260502062503 | 43 | 96 | 1.0 | 3.0 | 0.00 | 0.00 | 0.00 | 74 | 1028.5 |
| 20260502062003 | 42 | 93 | 1.0 | 3.0 | 0.00 | 0.00 | 0.00 | 73 | 1028.6 |
| 20260502061503 | 42 | 93 | 1.0 | 3.0 | 0.00 | 0.00 | 0.00 | 74 | 1028.5 |
| 20260502061213 | 42 | 93 | 1.0 | 3.0 | 0.00 | 0.00 | 0.00 | 73 | 1028.5 |
| 20260502060503 | 42 | 92 | 1.0 | 3.0 | 0.00 | 0.00 | 0.00 | 74 | 1028.6 |
| 20260502060214 | 41 | 92 | 2.0 | 4.0 | 0.00 | 0.00 | 0.00 | 74 | 1028.6 |
| 20260502055503 | 41 | 94 | 3.0 | 4.0 | 0.00 | 0.00 | 0.00 | 74 | 1028.6 |
| 20260502055003 | 41 | 94 | 3.0 | 4.0 | 0.00 | 0.00 | 0.00 | 76 | 1028.6 |
| 20260502054503 | 40 | 96 | 3.0 | 4.0 | 0.00 | 0.00 | 0.00 | 74 | 1028.6 |
| 20260502054003 | 40 | 100 | 2.0 | 4.0 | 0.00 | 0.00 | 0.00 | 74 | 1028.6 |
| 20260502053503 | 40 | 96 | 3.0 | 4.0 | 0.00 | 0.00 | 0.00 | 74 | 1028.6 |
| 20260502053003 | 40 | 91 | 3.0 | 4.0 | 0.00 | 0.00 | 0.00 | 74 | 1028.6 |
| 20260502052503 | 40 | 88 | 2.0 | 3.0 | 0.00 | 0.00 | 0.00 | 74 | 1028.7 |
| 20260502052003 | 40 | 88 | 1.0 | 3.0 | 0.00 | 0.00 | 0.00 | 75 | 1028.6 |
| 20260502051503 | 39 | 88 | 2.0 | 3.0 | 0.00 | 0.00 | 0.00 | 74 | 1028.6 |
| 20260502051003 | 39 | 88 | 3.0 | 4.0 | 0.00 | 0.00 | 0.00 | 75 | 1028.5 |
| 20260502050717 | 39 | 88 | 3.0 | 4.0 | 0.00 | 0.00 | 0.00 | 75 | 1028.5 |
| 20260502050003 | 38 | 89 | 4.0 | 6.0 | 0.00 | 0.00 | 0.00 | 75 | 1028.5 |
| 20260502045503 | 38 | 89 | 4.0 | 6.0 | 0.00 | 0.00 | 0.00 | 75 | 1028.5 |
| 20260502045003 | 38 | 89 | 4.0 | 7.0 | 0.00 | 0.00 | 0.00 | 76 | 1028.5 |
| 20260502044714 | 38 | 88 | 5.0 | 7.0 | 0.00 | 0.00 | 0.00 | 76 | 1028.5 |
| 20260502044217 | 38 | 89 | 5.0 | 7.0 | 0.00 | 0.00 | 0.00 | 76 | 1028.5 |
| 20260502043503 | 38 | 88 | 4.0 | 7.0 | 0.00 | 0.00 | 0.00 | 76 | 1028.4 |
| 20260502043003 | 38 | 87 | 4.0 | 7.0 | 0.00 | 0.00 | 0.00 | 76 | 1028.6 |
| 20260502042716 | 38 | 87 | 4.0 | 7.0 | 0.00 | 0.00 | 0.00 | 76 | 1028.4 |
| 20260502042003 | 38 | 86 | 3.0 | 5.0 | 0.00 | 0.00 | 0.00 | 76 | 1028.4 |
| 20260502041503 | 38 | 86 | 3.0 | 5.0 | 0.00 | 0.00 | 0.00 | 76 | 1028.4 |
| 20260502041003 | 38 | 86 | 3.0 | 5.0 | 0.00 | 0.00 | 0.00 | 76 | 1028.4 |
| 20260502040503 | 38 | 86 | 3.0 | 4.0 | 0.00 | 0.00 | 0.00 | 75 | 1028.4 |
| 20260502040003 | 38 | 87 | 3.0 | 4.0 | 0.00 | 0.00 | 0.00 | 75 | 1028.3 |
| 20260502035503 | 39 | 88 | 3.0 | 4.0 | 0.00 | 0.00 | 0.00 | 75 | 1028.4 |
| 20260502035003 | 39 | 88 | 3.0 | 4.0 | 0.00 | 0.00 | 0.00 | 75 | 1028.4 |
| 20260502034503 | 39 | 88 | 3.0 | 4.0 | 0.00 | 0.00 | 0.00 | 75 | 1028.4 |
| 20260502034003 | 39 | 88 | 3.0 | 4.0 | 0.00 | 0.00 | 0.00 | 75 | 1028.4 |
| 20260502033503 | 39 | 88 | 3.0 | 4.0 | 0.00 | 0.00 | 0.00 | 75 | 1028.4 |
| 20260502033003 | 39 | 90 | 3.0 | 6.0 | 0.00 | 0.00 | 0.00 | 75 | 1028.3 |
| 20260502032503 | 39 | 93 | 3.0 | 6.0 | 0.00 | 0.00 | 0.00 | 74 | 1028.2 |
| 20260502032003 | 39 | 93 | 3.0 | 4.0 | 0.00 | 0.00 | 0.00 | 75 | 1028.4 |
| 20260502031503 | 39 | 91 | 3.0 | 4.0 | 0.00 | 0.00 | 0.00 | 75 | 1028.4 |
| 20260502031003 | 39 | 90 | 2.0 | 4.0 | 0.00 | 0.00 | 0.00 | 75 | 1028.3 |
| 20260502030503 | 40 | 89 | 2.0 | 4.0 | 0.00 | 0.00 | 0.00 | 74 | 1028.4 |
| 20260502030216 | 40 | 88 | 2.0 | 4.0 | 0.00 | 0.00 | 0.00 | 74 | 1028.4 |
| 20260502025503 | 40 | 89 | 2.0 | 3.0 | 0.00 | 0.00 | 0.00 | 74 | 1028.4 |
| 20260502025003 | 40 | 89 | 2.0 | 3.0 | 0.00 | 0.00 | 0.00 | 73 | 1028.4 |
| 20260502024503 | 40 | 88 | 2.0 | 3.0 | 0.00 | 0.00 | 0.00 | 73 | 1028.4 |
| 20260502024003 | 41 | 88 | 2.0 | 3.0 | 0.00 | 0.00 | 0.00 | 73 | 1028.4 |
| 20260502023503 | 41 | 89 | 1.0 | 2.0 | 0.00 | 0.00 | 0.00 | 73 | 1028.4 |
| 20260502023003 | 41 | 89 | 1.0 | 2.0 | 0.00 | 0.00 | 0.00 | 73 | 1028.5 |
| 20260502022503 | 41 | 89 | 1.0 | 2.0 | 0.00 | 0.00 | 0.00 | 73 | 1028.5 |
| 20260502022003 | 41 | 89 | 1.0 | 2.0 | 0.00 | 0.00 | 0.00 | 73 | 1028.5 |
| 20260502021503 | 41 | 89 | 1.0 | 3.0 | 0.00 | 0.00 | 0.00 | 74 | 1028.6 |
| 20260502021003 | 40 | 89 | 2.0 | 3.0 | 0.00 | 0.00 | 0.00 | 74 | 1028.7 |
| 20260502020503 | 40 | 89 | 2.0 | 3.0 | 0.00 | 0.00 | 0.00 | 74 | 1028.6 |
| 20260502020003 | 40 | 89 | 2.0 | 3.0 | 0.00 | 0.00 | 0.00 | 74 | 1028.6 |
| 20260502015503 | 40 | 89 | 1.0 | 3.0 | 0.00 | 0.00 | 0.00 | 75 | 1028.5 |
| 20260502015003 | 40 | 89 | 2.0 | 3.0 | 0.00 | 0.00 | 0.00 | 75 | 1028.6 |
| 20260502014716 | 40 | 89 | 2.0 | 3.0 | 0.00 | 0.00 | 0.00 | 75 | 1028.6 |
| 20260502014003 | 40 | 89 | 3.0 | 5.0 | 0.00 | 0.00 | 0.00 | 76 | 1028.6 |
| 20260502013503 | 41 | 89 | 3.0 | 5.0 | 0.00 | 0.00 | 0.00 | 75 | 1028.6 |
| 20260502013003 | 41 | 90 | 3.0 | 6.0 | 0.00 | 0.00 | 0.00 | 75 | 1028.6 |
| 20260502012503 | 41 | 90 | 4.0 | 6.0 | 0.00 | 0.00 | 0.00 | 75 | 1028.7 |
| 20260502012003 | 41 | 88 | 3.0 | 6.0 | 0.00 | 0.00 | 0.00 | 74 | 1028.6 |
| 20260502011503 | 41 | 89 | 4.0 | 7.0 | 0.00 | 0.00 | 0.00 | 75 | 1028.7 |
| 20260502011216 | 41 | 89 | 5.0 | 8.0 | 0.00 | 0.00 | 0.00 | 75 | 1028.6 |
| 20260502010714 | 41 | 92 | 5.0 | 8.0 | 0.00 | 0.00 | 0.00 | 75 | 1028.6 |
| 20260502010003 | 41 | 87 | 7.0 | 10.0 | 0.00 | 0.00 | 0.00 | 75 | 1028.7 |
| 20260502005503 | 41 | 86 | 7.0 | 10.0 | 0.00 | 0.00 | 0.00 | 75 | 1028.6 |
| 20260502005003 | 41 | 90 | 7.0 | 9.0 | 0.00 | 0.00 | 0.00 | 75 | 1028.6 |
| 20260502004503 | 41 | 93 | 7.0 | 9.0 | 0.00 | 0.00 | 0.00 | 75 | 1028.7 |
| 20260502004003 | 42 | 91 | 7.0 | 10.0 | 0.00 | 0.00 | 0.00 | 75 | 1028.7 |
| 20260502003717 | 42 | 90 | 7.0 | 10.0 | 0.00 | 0.00 | 0.00 | 75 | 1028.7 |
| 20260502003003 | 42 | 87 | 6.0 | 9.0 | 0.00 | 0.00 | 0.00 | 74 | 1028.7 |
| 20260502002503 | 42 | 90 | 6.0 | 9.0 | 0.00 | 0.00 | 0.00 | 74 | 1028.8 |
| 20260502002003 | 42 | 89 | 8.0 | 11.0 | 0.00 | 0.00 | 0.00 | 74 | 1028.8 |
| 20260502001714 | 42 | 85 | 8.0 | 11.0 | 0.00 | 0.00 | 0.00 | 74 | 1028.8 |
| 20260502001003 | 42 | 87 | 8.0 | 10.0 | 0.00 | 0.00 | 0.00 | 75 | 1028.8 |
| 20260502000503 | 42 | 93 | 7.0 | 10.0 | 0.00 | 0.00 | 0.00 | 74 | 1028.8 |
| 20260502000004 | 42 | 94 | 7.0 | 9.0 | 0.00 | 0.00 | 0.00 | 74 | 1028.9 |
| 20260501235503 | 42 | 93 | 7.0 | 9.0 | 0.00 | 0.00 | 0.00 | 74 | 1028.8 |
| 20260501235003 | 42 | 94 | 6.0 | 9.0 | 0.00 | 0.00 | 0.00 | 74 | 1028.8 |
| 20260501234503 | 42 | 95 | 5.0 | 10.0 | 0.00 | 0.00 | 0.00 | 74 | 1028.9 |
| 20260501234003 | 43 | 92 | 6.0 | 10.0 | 0.00 | 0.00 | 0.00 | 73 | 1028.8 |
| 20260501233503 | 43 | 88 | 7.0 | 10.0 | 0.00 | 0.00 | 0.00 | 73 | 1028.8 |
| 20260501233003 | 43 | 84 | 8.0 | 10.0 | 0.00 | 0.00 | 0.00 | 73 | 1028.8 |
| 20260501232503 | 43 | 85 | 7.0 | 9.0 | 0.00 | 0.00 | 0.00 | 73 | 1028.9 |
| 20260501232003 | 43 | 90 | 7.0 | 9.0 | 0.00 | 0.00 | 0.00 | 73 | 1028.8 |
| 20260501231503 | 43 | 96 | 7.0 | 9.0 | 0.00 | 0.00 | 0.00 | 73 | 1028.8 |
| 20260501231003 | 43 | 86 | 5.0 | 9.0 | 0.00 | 0.00 | 0.00 | 73 | 1028.8 |
| 20260501230503 | 42 | 97 | 4.0 | 8.0 | 0.00 | 0.00 | 0.00 | 74 | 1028.7 |
| 20260501230003 | 42 | 94 | 4.0 | 7.0 | 0.00 | 0.00 | 0.00 | 73 | 1028.8 |
| 20260501225503 | 42 | 82 | 4.0 | 8.0 | 0.00 | 0.00 | 0.00 | 74 | 1028.7 |
| 20260501225003 | 42 | 76 | 3.0 | 8.0 | 0.00 | 0.00 | 0.00 | 75 | 1028.8 |
| 20260501224713 | 42 | 81 | 2.0 | 5.0 | 0.00 | 0.00 | 0.00 | 76 | 1028.8 |
| 20260501224003 | 40 | 81 | 1.0 | 4.0 | 0.00 | 0.00 | 0.00 | 77 | 1028.8 |
| 20260501223503 | 40 | 81 | 1.0 | 3.0 | 0.00 | 0.00 | 0.00 | 77 | 1028.8 |
| 20260501223217 | 40 | 80 | 1.0 | 3.0 | 0.00 | 0.00 | 0.00 | 75 | 1028.8 |
| 20260501222503 | 40 | 80 | 2.0 | 3.0 | 0.00 | 0.00 | 0.00 | 74 | 1028.8 |
| 20260501222003 | 40 | 80 | 1.0 | 3.0 | 0.00 | 0.00 | 0.00 | 74 | 1028.8 |
| 20260501221503 | 40 | 80 | 0.0 | 1.0 | 0.00 | 0.00 | 0.00 | 74 | 1028.8 |
| 20260501221003 | 40 | 80 | 0.0 | 1.0 | 0.00 | 0.00 | 0.00 | 76 | 1028.9 |
| 20260501220717 | 40 | 80 | 0.0 | 1.0 | 0.00 | 0.00 | 0.00 | 76 | 1028.7 |
| 20260501215503 | 40 | 82 | 1.0 | 3.0 | 0.00 | 0.00 | 0.00 | 76 | 1028.6 |
| 20260501215003 | 40 | 84 | 1.0 | 3.0 | 0.00 | 0.00 | 0.00 | 77 | 1028.6 |
| 20260501214714 | 40 | 84 | 1.0 | 3.0 | 0.00 | 0.00 | 0.00 | 75 | 1028.6 |